Flag for Japan Weather past 2 weeks in Hamamatsu, Japan

Now
79 °F

Warm.


Feels Like: 83 °F
Forecast: 74 / 79 °F
Wind: 7 mph from South

Location: Omaezaki

Current Time: Aug 31, 2015 at 4:50:32 PM

Latest Report: Aug 31, 2015 at 4:00 PM


Visibility: 10 mi

Pressure: 29.93 "Hg

Humidity: 88%

Dew point: 75 °F

Location of HamamatsuLocation

Historic Weather in Hamamatsu — Graph

°F

Hamamatsu temperature yesterday

Maximum temperature yesterday: 78 °F (at 12:00 PM)
Minimum temperature yesterday: 73 °F (at 7:00 AM)
Average temperature yesterday: 76 °F

Past Weeks' High & Low Weather Summary

 TemperatureHumidityPressure
High87 °F (Aug 22, 2:00 PM)98% (Aug 17, 7:00 AM)29.95 "Hg (Aug 17, 7:00 AM)
Low69 °F (Aug 25, 9:00 PM)64% (Aug 24, 2:00 PM)29.50 "Hg (Aug 22, 4:00 PM)
Average79 °F85%29.78 "Hg
* Reported Aug 16 3:00 PM — Aug 31 3:00 PM, Hamamatsu, Weather by CustomWeather, © 2015

Note: Actual official high and low records may vary slightly from our data, if they occured in-between our weather recording intervals... More about our weather records

Advertising

Hamamatsu weather history for previous 24 hours

 ConditionsComfort  
Time TempWeatherWind HumidityBarometerVisibility
3:00 PM
Mon, Aug 31
80 °FWarm.8 mph84%29.93 "Hg11 mi
2:00 PM81 °FWarm.8 mph83%29.93 "Hg12 mi
1:00 PM81 °FWarm.7 mph81%29.94 "Hg12 mi
12:00 PM81 °FWarm.7 mph80%29.93 "Hg12 mi
11:00 AM82 °FWarm.8 mph81%29.95 "Hg12 mi
10:00 AM81 °FWarm.12 mph81%29.95 "Hg12 mi
9:00 AM81 °FWarm.8 mph82%29.94 "Hg12 mi
8:00 AM80 °FWarm.8 mph87%29.93 "Hg12 mi
7:00 AM79 °FWarm.8 mph89%29.92 "Hg12 mi
5:00 AM77 °FMild.10 mph96%29.89 "Hg7 mi
4:00 AM77 °FFog.9 mph96%29.88 "Hg6 mi
3:00 AM78 °FWarm.10 mph94%29.87 "Hg8 mi
2:00 AM78 °FWarm.13 mph90%29.86 "Hg11 mi
1:00 AM78 °FWarm.9 mph93%29.86 "Hg11 mi
12:00 AM76 °FMild.7 mph98%29.87 "Hg8 mi
11:00 PM
Sun, Aug 30
76 °FMild.5 mph96%29.87 "Hg12 mi
10:00 PM76 °FMild.6 mph97%29.87 "Hg12 mi
9:00 PM76 °FMild.3 mph97%29.88 "Hg9 mi
8:00 PM76 °FMild.5 mph97%29.87 "Hg11 mi
7:00 PM75 °FMild.3 mph95%29.85 "Hg12 mi
6:00 PM75 °FLight rain. Overcast.6 mph97%29.85 "Hg12 mi
5:00 PM76 °FLight rain. Cloudy.7 mph95%29.84 "Hg6 mi
4:00 PM77 °FLight rain. Cloudy.7 mph93%29.84 "Hg10 mi
Weather by CustomWeather, © 2015

See weather overviewHow to use our weather pages